Hallock, MN

11:42 PM CDT on March 28, 2017 (GMT -0500)
Hallock Municipal

Weather History for KHCO - December, 2011

Change the Weather History Date:

Saturday, December 10, 2011

  Actual Average Record
Temperature  
Mean Temperature 22 °F -  
Max Temperature 35 °F 16 °F 46 °F (1990)
Min Temperature 8 °F 0 °F -28 °F (1977)
Degree Days  
Heating Degree Days 44    
Moisture  
Dew Point 12 °F    
Average Humidity 69    
Maximum Humidity 85    
Minimum Humidity 56    
Precipitation  
Precipitation 0.00 in - - ()
Sea Level Pressure  
Sea Level Pressure 29.96 in    
Wind  
Wind Speed 10 mph (South)    
Max Wind Speed 16 mph    
Max Gust Speed -    
Visibility 10 miles    
Events      
Averages and records for this station are not official NWS values.
T = Trace of Precipitation, MM = Missing Value Source: NWS Daily Summary

Daily Weather History Graph

Daily Weather History Graph

Search for Another Location

Airport or City:

Trip Planner

Search our weather history database for the weather conditions in past years. The results will help you decide how hot, cold, wet, or windy it might be!

Date:

Astronomy

Dec. 10, 2011 Rise Set
Actual Time 8:09 AM CST 4:31 PM CST
Civil Twilight 7:32 AM CST 5:08 PM CST
Nautical Twilight 6:52 AM CST 5:48 PM CST
Astronomical Twilight 6:14 AM CST 6:26 PM CST
Moon 4:45 PM CST (12/10) 8:12 AM CST (12/10)
Length of Visible Light 9h 35m
Length of Day
8h 21m
Full, 100% of the Moon is Illuminated
Dec 10
Full
Dec 17
Last Quarter
Dec 24
New
Jan 1
First Quarter
Jan 9
Full

Hourly Weather History & Observations

Time (CST) Temp. Windchill Dew Point Humidity Pressure Visibility Wind Dir Wind Speed Gust Speed Precip Events Conditions
12:14 AM 10.4 °F -4.1 °F 1.4 °F 67% 30.07 in 10.0 mi South 11.5 mph - N/A   Overcast
12:34 AM 10.4 °F -3.3 °F 1.4 °F 67% 30.05 in 10.0 mi South 10.4 mph - N/A   Overcast
12:54 AM 12.2 °F -2.5 °F 3.2 °F 67% 30.04 in 10.0 mi South 12.7 mph - N/A   Overcast
1:14 AM 12.2 °F -2.5 °F 3.2 °F 67% 30.03 in 10.0 mi South 12.7 mph - N/A   Overcast
1:34 AM 12.2 °F -1.8 °F 5.0 °F 73% 30.01 in 10.0 mi South 11.5 mph - N/A   Overcast
1:54 AM 14.0 °F -1.4 °F 5.0 °F 67% 30.00 in 10.0 mi South 15.0 mph - N/A   Overcast
2:14 AM 14.0 °F -0.2 °F 5.0 °F 67% 30.00 in 10.0 mi South 12.7 mph - N/A   Overcast
2:34 AM 15.8 °F 0.9 °F 6.8 °F 68% 29.99 in 10.0 mi South 15.0 mph - N/A   Overcast
2:54 AM 15.8 °F 0.3 °F 6.8 °F 68% 29.98 in 10.0 mi South 16.1 mph - N/A   Overcast
3:14 AM 15.8 °F 1.4 °F 6.8 °F 68% 29.98 in 10.0 mi South 13.8 mph - N/A   Overcast
3:34 AM 15.8 °F 0.9 °F 6.8 °F 68% 29.98 in 10.0 mi South 15.0 mph - N/A   Overcast
3:54 AM 15.8 °F 2.1 °F 8.6 °F 73% 29.97 in 10.0 mi South 12.7 mph - N/A   Overcast
4:14 AM 15.8 °F 1.4 °F 8.6 °F 73% 29.96 in 10.0 mi South 13.8 mph - N/A   Overcast
4:34 AM 15.8 °F 1.4 °F 8.6 °F 73% 29.95 in 10.0 mi South 13.8 mph - N/A   Mostly Cloudy
4:54 AM 15.8 °F 2.1 °F 6.8 °F 68% 29.96 in 10.0 mi South 12.7 mph - N/A   Scattered Clouds
5:13 AM 14.0 °F 0.5 °F 6.8 °F 73% 29.96 in 10.0 mi South 11.5 mph - N/A   Clear
5:34 AM 12.2 °F -1.0 °F 6.8 °F 79% 29.95 in 10.0 mi South 10.4 mph - N/A   Clear
5:54 AM 12.2 °F -0.2 °F 6.8 °F 79% 29.95 in 10.0 mi South 9.2 mph - N/A   Clear
6:14 AM 12.2 °F -1.0 °F 6.8 °F 79% 29.95 in 10.0 mi South 10.4 mph - N/A   Clear
6:34 AM 12.2 °F 1.7 °F 6.8 °F 79% 29.96 in 10.0 mi South 6.9 mph - N/A   Clear
6:54 AM 10.4 °F -2.4 °F 6.8 °F 85% 29.95 in 10.0 mi South 9.2 mph - N/A   Clear
7:13 AM 10.4 °F -0.4 °F 5.0 °F 79% 29.95 in 10.0 mi South 6.9 mph - N/A   Clear
7:34 AM 10.4 °F -0.4 °F 3.2 °F 73% 29.95 in 10.0 mi South 6.9 mph - N/A   Clear
7:54 AM 8.6 °F -3.7 °F 3.2 °F 79% 29.95 in 10.0 mi South 8.1 mph - N/A   Clear
8:14 AM 8.6 °F -1.3 °F 3.2 °F 79% 29.95 in 10.0 mi South 5.8 mph - N/A   Clear
8:34 AM 8.6 °F -1.3 °F 3.2 °F 79% 29.95 in 10.0 mi South 5.8 mph - N/A   Clear
8:54 AM 10.4 °F 0.8 °F 5.0 °F 79% 29.95 in 10.0 mi South 5.8 mph - N/A   Clear
9:13 AM 12.2 °F 4.3 °F 8.6 °F 85% 29.96 in 10.0 mi SSW 4.6 mph - N/A   Clear
9:34 AM 17.6 °F 10.7 °F 10.4 °F 73% 29.97 in 10.0 mi SSW 4.6 mph - N/A   Clear
9:54 AM 19.4 °F 11.5 °F 12.2 °F 74% 29.97 in 10.0 mi SW 5.8 mph - N/A   Clear
10:14 AM 23.0 °F 15.8 °F 15.8 °F 74% 29.98 in 10.0 mi WSW 5.8 mph - N/A   Clear
10:34 AM 24.8 °F 16.1 °F 17.6 °F 74% 29.99 in 10.0 mi West 8.1 mph - N/A   Clear
11:13 AM 28.4 °F 21.2 °F 17.6 °F 64% 29.99 in 10.0 mi WNW 6.9 mph - N/A   Clear
11:34 AM 30.2 °F 25.4 °F 19.4 °F 64% 29.99 in 10.0 mi WNW 4.6 mph - N/A   Clear
11:54 AM 30.2 °F 25.4 °F 19.4 °F 64% 29.99 in 10.0 mi WNW 4.6 mph - N/A   Clear
12:15 PM 30.2 °F 24.3 °F 19.4 °F 64% 29.98 in 10.0 mi West 5.8 mph - N/A   Clear
12:34 PM 32.0 °F 24.8 °F 19.4 °F 60% 29.99 in 10.0 mi West 8.1 mph - N/A   Clear
12:54 PM 33.8 °F 27.7 °F 19.4 °F 56% 29.97 in 10.0 mi West 6.9 mph - N/A   Clear
1:14 PM 33.8 °F 28.6 °F 19.4 °F 56% 29.97 in 10.0 mi WSW 5.8 mph - N/A   Clear
1:34 PM 33.8 °F 27.7 °F 21.2 °F 60% 29.97 in 10.0 mi West 6.9 mph - N/A   Clear
1:54 PM 35.6 °F 31.7 °F 21.2 °F 56% 29.96 in 10.0 mi West 4.6 mph - N/A   Clear
2:14 PM 35.6 °F - 21.2 °F 56% 29.95 in 10.0 mi Calm Calm - N/A   Clear
2:33 PM 35.6 °F 32.8 °F 21.2 °F 56% 29.94 in 10.0 mi SW 3.5 mph - N/A   Clear
2:54 PM 35.6 °F 29.9 °F 21.2 °F 56% 29.95 in 10.0 mi SSW 6.9 mph - N/A   Clear
3:14 PM 33.8 °F 27.0 °F 21.2 °F 60% 29.94 in 10.0 mi South 8.1 mph - N/A   Clear
3:34 PM 33.8 °F 28.6 °F 21.2 °F 60% 29.94 in 10.0 mi South 5.8 mph - N/A   Clear
4:14 PM 32.0 °F 26.4 °F 19.4 °F 60% 29.93 in 10.0 mi SSE 5.8 mph - N/A   Clear
4:33 PM 28.4 °F 21.2 °F 17.6 °F 64% 29.91 in 10.0 mi SE 6.9 mph - N/A   Clear
4:54 PM 26.6 °F 17.5 °F 17.6 °F 69% 29.92 in 10.0 mi SSE 9.2 mph - N/A   Clear
5:14 PM 24.8 °F 14.6 °F 17.6 °F 74% 29.90 in 10.0 mi SE 10.4 mph - N/A   Clear
5:34 PM 24.8 °F 14.0 °F 17.6 °F 74% 29.89 in 10.0 mi SE 11.5 mph - N/A   Clear
5:54 PM 24.8 °F 14.0 °F 17.6 °F 74% 29.88 in 10.0 mi SE 11.5 mph - N/A   Clear
6:14 PM 24.8 °F 14.0 °F 17.6 °F 74% 29.87 in 10.0 mi SE 11.5 mph - N/A   Clear
6:35 PM 24.8 °F 15.3 °F 15.8 °F 69% 29.87 in 10.0 mi SE 9.2 mph - N/A   Clear
6:54 PM 23.0 °F 13.1 °F 15.8 °F 74% 29.86 in 10.0 mi SSE 9.2 mph - N/A   Clear
7:14 PM 21.2 °F 10.1 °F 15.8 °F 80% 29.85 in 10.0 mi SSE 10.4 mph - N/A   Clear
7:34 PM 23.0 °F 12.4 °F 17.6 °F 80% 29.84 in 10.0 mi SSE 10.4 mph - N/A   Clear
7:54 PM 24.8 °F 13.4 °F 17.6 °F 74% 29.82 in 10.0 mi SSE 12.7 mph - N/A   Clear
8:14 PM 24.8 °F 14.0 °F 19.4 °F 80% 29.80 in 10.0 mi SSE 11.5 mph - N/A   Clear
8:34 PM 24.8 °F 14.0 °F 19.4 °F 80% 29.80 in 10.0 mi SSE 11.5 mph - N/A   Clear
8:54 PM 24.8 °F 12.4 °F 19.4 °F 80% 29.78 in 10.0 mi SSE 15.0 mph - N/A   Clear
9:13 PM 24.8 °F 12.9 °F 19.4 °F 80% 29.77 in 10.0 mi SSE 13.8 mph - N/A   Clear
9:34 PM 26.6 °F 15.2 °F 21.2 °F 80% 29.75 in 10.0 mi South 13.8 mph - N/A   Clear
9:54 PM 26.6 °F 15.7 °F 21.2 °F 80% 29.75 in 10.0 mi South 12.7 mph - N/A   Clear
10:15 PM 26.6 °F 16.2 °F 21.2 °F 80% 29.74 in 10.0 mi South 11.5 mph - N/A   Clear
10:34 PM 26.6 °F 18.2 °F 19.4 °F 74% 29.75 in 10.0 mi SSE 8.1 mph - N/A   Clear
10:54 PM 24.8 °F 16.1 °F 19.4 °F 80% 29.75 in 10.0 mi SSE 8.1 mph - N/A   Clear
11:14 PM 24.8 °F 14.6 °F 19.4 °F 80% 29.74 in 10.0 mi SSE 10.4 mph - N/A   Clear
11:34 PM 24.8 °F 13.4 °F 19.4 °F 80% 29.74 in 10.0 mi South 12.7 mph - N/A   Clear
11:54 PM 24.8 °F 14.0 °F 19.4 °F 80% 29.74 in 10.0 mi South 11.5 mph - N/A   Clear